Regional Weather Roundup
Issued by NWS Green Bay, WI

Home | Current Version | Previous Version | Graphics & Text | Print | Product List | Glossary Off
Versions: 1 2 3 4 5 6 7 8 9 10 11 12 13 14 15 16 17 18 19 20 21 22 23 24 25 26 27 28 29 30 31 32 33 34 35 36 37 38 39 40 41 42 43 44 45 46 47 48 49 50

000
ASUS43 KGRB 230811
RWRGRB

NORTH-CENTRAL AND NORTHEAST WISCONSIN REGIONAL WEATHER ROUNDUP
NATIONAL WEATHER SERVICE GREEN BAY WI
300 AM CDT SUN JUL 23 2017

WIZ005-009-010>012-018-019-230900-
NORTH CENTRAL WISCONSIN

CITY           SKY/WX    TMP DP  RH WIND       PRES   REMARKS
IRONWOOD       FOG       58  57  97 NW10      29.81S VSB 1/4
MANITOWISH WTR FOG       61  61 100 CALM      29.80F VSB 1/4
ARBOR VITAE    CLOUDY    62  61  96 CALM      29.79F
EAGLE RIVER    FOG       60  60 100 CALM      29.79F VSB<1/4
LAND O LAKES   FOG       61  61 100 CALM      29.81F VSB<1/4
RHINELANDER    FOG       58  58 100 W3        29.81S VSB 1/4
PHILLIPS       FOG       58  58 100 CALM      29.80F VSB 1/2
ANTIGO         CLEAR     60  60 100 CALM      29.80F
TOMAHAWK       FOG       57  56  97 CALM      29.81S VSB 1/4
MERRILL        CLEAR     63  63 100 CALM      29.80F
$$

WIZ013-073-230900-
NORTHEAST WISCONSIN

CITY           SKY/WX    TMP DP  RH WIND       PRES   REMARKS
IRON MOUNTAIN  CLOUDY    65  62  90 W3        29.75F FOG
MARINETTE      CLEAR     65  64  97 CALM      29.75F
OCONTO         CLOUDY    64  64  99 W3        29.75S
$$

WIZ017-030-035>037-045-230900-
CENTRAL WISCONSIN

CITY           SKY/WX    TMP DP  RH WIND       PRES   REMARKS
MEDFORD        FOG       60  60  99 CALM      29.80F VSB 1/2
WAUSAU         CLEAR     68  64  87 NW5       29.78F
MOSINEE        CLEAR     64  64 100 NW5       29.80F
MARSHFIELD     CLEAR     64  61  90 NW3       29.80F
WISC RAPIDS    FOG       63  63 100 CALM      29.80F VSB 1
STEVENS POINT  CLEAR     67  67 100 CALM      29.80F
WAUPACA        PTCLDY    71  70  95 W5        29.78S
SHAWANO        CLOUDY    69  67  94 W3        29.77S FOG
CLINTONVILLE   FOG       68  68 100 CALM      29.77F VSB 1/4
WAUTOMA        CLEAR     69  67  93 NW7       29.79F
$$

WIZ038-039-048-051-230900-
FOX VALLEY

CITY           SKY/WX    TMP DP  RH WIND       PRES   REMARKS
NWS GREEN BAY  CLEAR     67  67 100 CALM      29.76F
APPLETON       CLEAR     68  68 100 CALM      29.76F
OSHKOSH        PTCLDY    73  70  90 CALM      29.77S
FOND DU LAC    CLOUDY    73  69  87 W3        29.77F
$$

WIZ022-050-052-230900-
EAST CENTRAL WISCONSIN

CITY           SKY/WX    TMP DP  RH WIND       PRES   REMARKS
EPHRAIM        FAIR      63  62  97 CALM      29.74F
WASHINGTON ISL FAIR      61  60  99 CALM      29.74F FOG
STURGEON BAY     N/A     66  62  87 SW8       29.75F
MANITOWOC      CLOUDY    67  66  97 S7        29.77F
SHEBOYGAN      CLOUDY    67  67 100 E6        29.78F
$$

LMZ563-521-522-541>543-230900-
LAKESHORE

STATION/POSITION TIME  TEMP    WIND        PRES    VSBY  WAVE
                       AIR SEA DIR/SP/G                  HT/PER
                 (UTC) (F)     (DEG/KT/KT) (MB)    (MI)  (FT/S)
SHEBOYGAN LKSHOR 0800   67      90/ 11/ 11 1007.8F
KEWAUNEE LKSHORE 0748   67     190/  9/ 12 1007.3R
NORTHPORT PIER   0740   66     200/  4/  6 1007.5S
N MID LAKE BUOY  0750   68 68  210/  4/  4 1007.5F         0
S GREEN BAY BUOY 0800   69 72  200/ 10/ 12 1007.1
SISTER BAY LKSHO 0802   67        CALM       N/A
CHAMBERS ISLAND  0740   69     200/  3/  6 1006.8F
MENOMINEE LKSHOR 0748   68     260/  3/  7 1007.2F
$$



USA.gov is the U.S. government's official web portal to all federal, state and local government web resources and services.